PDT,Max TemperatureF,Mean TemperatureF,Min TemperatureF,Max Dew PointF,MeanDew PointF,Min DewpointF,Max Humidity, Mean Humidity, Min Humidity, Max Sea Level PressureIn, Mean Sea Level PressureIn, Min Sea Level PressureIn, Max VisibilityMiles, Mean VisibilityMiles, Min VisibilityMiles, Max Wind SpeedMPH, Mean Wind SpeedMPH, Max Gust SpeedMPH,PrecipitationIn, CloudCover, Events, WindDirDegrees
2013-10-1,53,41,29,39,33,28,96,74,52,30.21,30.09,30.00,10,10,10,24,7,32,0.03,4,Rain,239
2013-10-2,52,39,25,36,30,23,92,69,46,30.21,30.11,30.04,10,10,10,18,5,23,0.01,2,Rain,293
2013-10-3,53,41,29,36,32,28,92,68,44,30.44,30.30,30.12,10,10,10,10,3,16,T,4,Rain,322
2013-10-4,62,43,24,36,30,24,92,60,27,30.55,30.47,30.42,10,10,10,12,4,15,0.00,0,,137
2013-10-5,76,50,23,35,27,12,92,51,9,30.43,30.33,30.22,10,10,9,13,4,17,0.00,0,,154
2013-10-6,77,52,27,34,27,20,92,53,13,30.23,30.09,29.99,10,10,10,16,5,21,0.00,0,,238
2013-10-7,57,47,36,38,31,19,73,49,24,30.09,30.01,29.92,10,10,9,23,10,30,0.00,2,,283
2013-10-8,50,40,30,37,33,28,96,73,50,30.11,30.02,29.95,10,10,8,14,4,17,0.01,5,Rain,42
2013-10-9,47,38,29,35,34,28,92,76,60,30.08,30.02,29.97,10,10,10,17,8,21,T,7,,324
2013-10-10,59,44,29,34,32,29,92,64,36,30.06,29.97,29.92,10,10,10,17,5,21,0.00,2,,284
2013-10-11,56,42,27,36,31,26,92,69,45,30.14,30.09,30.05,10,10,10,9,4,12,0.00,0,,170
2013-10-12,51,40,28,37,33,28,92,72,52,30.14,30.08,30.04,10,10,10,16,4,20,T,7,,344
2013-10-13,52,40,27,38,35,25,92,71,50,30.34,30.23,30.15,10,10,10,10,4,12,0.00,7,,325
2013-10-14,57,41,25,34,28,23,92,65,38,30.43,30.38,30.34,10,10,9,14,4,18,0.00,0,,17
2013-10-15,63,40,17,32,26,19,92,58,23,30.43,30.32,30.19,10,10,9,10,4,16,0.00,0,,149
2013-10-16,63,44,25,33,26,20,82,53,23,30.20,30.15,30.11,10,10,10,15,5,18,0.00,0,,327
2013-10-17,62,43,23,34,29,24,92,62,32,30.29,30.25,30.20,10,10,10,12,3,14,0.00,0,,289
2013-10-18,65,44,22,36,30,21,92,62,31,30.32,30.26,30.19,10,10,10,10,3,15,0.00,0,,157
2013-10-19,77,51,25,31,26,22,92,53,13,30.22,30.16,30.08,10,10,10,9,2,10,0.00,0,,131
2013-10-20,71,49,26,35,29,23,78,50,22,30.23,30.17,30.12,10,10,10,10,3,13,0.00,0,,147
2013-10-21,73,50,27,37,32,27,85,54,23,30.23,30.17,30.11,10,10,10,15,4,16,0.00,0,,276
2013-10-22,72,49,26,39,32,25,92,59,25,30.22,30.14,30.07,10,10,10,12,4,,0.00,0,,209
2013-10-23,68,48,27,40,34,27,92,62,32,30.14,30.09,30.04,10,10,10,14,5,17,0.00,0,,240
2013-10-24,68,47,26,41,35,26,92,62,32,30.14,30.11,30.05,10,10,10,10,3,13,0.00,0,,234
2013-10-25,72,52,31,37,33,29,89,56,22,30.27,30.21,30.15,10,10,10,13,4,15,0.00,0,,175
2013-10-26,69,48,26,37,31,25,85,66,46,30.31,30.22,30.12,10,9,5,14,6,16,0.00,0,,191
2013-10-27,52,39,26,43,35,26,100,85,61,30.11,29.86,29.75,10,9,4,23,8,30,0.08,5,Rain,326
2013-10-28,42,36,30,40,28,21,75,64,52,29.96,29.84,29.75,10,10,7,22,11,28,0.01,7,Rain,341
2013-10-29,47,32,17,21,19,16,84,59,33,30.09,30.04,29.97,10,10,10,12,2,14,0.00,0,,232
2013-10-30,58,37,16,32,25,16,92,61,30,30.18,30.14,30.08,10,10,10,9,3,13,0.00,0,,140
2013-10-31,60,45,30,44,38,29,89,71,53,30.27,30.20,30.15,10,10,2,18,4,23,T,6,Rain,83